Time,TemperatureF,DewpointF,PressureIn,WindDirection,WindDirectionDegrees,WindSpeedMPH,WindSpeedGustMPH,Humidity,HourlyPrecipIn,Conditions,Clouds,dailyrainin,SoftwareType,DateUTC
2013-07-25 00:00:00,77.3,65.1,28.05,North,0,10.5,10.5,66,0.00,,,0.00,VWS V13.00,2013-07-25 04:00:00,
2013-07-25 00:01:00,77.3,65.1,28.05,North,0,10.5,10.5,66,0.00,,,0.00,VWS V13.00,2013-07-25 04:01:00,
2013-07-25 00:06:00,77.1,64.4,28.28,North,0,7.6,10.5,65,0.00,,,0.00,VWS V13.00,2013-07-25 04:06:00,
2013-07-25 00:11:00,76.8,64.2,28.79,North,0,9.8,10.5,65,0.00,,,0.00,VWS V13.00,2013-07-25 04:11:00,
2013-07-25 00:16:00,76.8,63.7,28.12,North,0,8.2,10.5,64,0.00,,,0.00,VWS V13.00,2013-07-25 04:16:00,
2013-07-25 00:21:00,76.8,63.3,27.85,NNW,338,14.5,14.5,63,0.00,,,0.00,VWS V13.00,2013-07-25 04:21:00,
2013-07-25 00:26:00,76.6,62.6,28.81,NW,315,8.0,14.5,62,0.00,,,0.00,VWS V13.00,2013-07-25 04:26:00,
2013-07-25 00:31:00,76.2,62.7,28.04,NW,315,4.6,14.5,63,0.00,,,0.00,VWS V13.00,2013-07-25 04:31:00,
2013-07-25 00:37:00,75.9,62.0,28.04,NNW,338,17.0,17.0,62,0.00,,,0.00,VWS V13.00,2013-07-25 04:37:00,
2013-07-25 00:42:00,75.7,61.8,27.80,NNW,338,2.4,2.4,62,0.00,,,0.00,VWS V13.00,2013-07-25 04:42:00,
2013-07-25 00:47:00,75.3,61.8,27.76,North,0,10.7,11.1,63,0.00,,,0.00,VWS V13.00,2013-07-25 04:47:00,
2013-07-25 00:52:00,75.0,61.1,27.54,NE,45,10.5,11.1,62,0.00,,,0.00,VWS V13.00,2013-07-25 04:52:00,
2013-07-25 00:57:00,74.8,61.4,27.89,North,0,8.5,11.1,63,0.00,,,0.00,VWS V13.00,2013-07-25 04:57:00,
2013-07-25 01:02:00,74.8,60.9,27.36,WNW,292,0.0,0.0,62,0.00,,,0.00,VWS V13.00,2013-07-25 05:02:00,
2013-07-25 01:07:00,74.4,61.0,27.06,North,0,10.5,10.5,63,0.00,,,0.00,VWS V13.00,2013-07-25 05:07:00,
2013-07-25 01:12:00,74.3,60.9,26.10,NW,315,8.0,10.5,63,0.00,,,0.00,VWS V13.00,2013-07-25 05:12:00,
2013-07-25 01:17:00,74.1,60.7,27.17,North,0,2.2,15.8,63,0.00,,,0.00,VWS V13.00,2013-07-25 05:17:00,
2013-07-25 01:22:00,73.9,60.5,27.14,NNE,22,5.3,11.1,63,0.00,,,0.00,VWS V13.00,2013-07-25 05:22:00,
2013-07-25 01:27:00,73.7,59.9,26.97,NNW,338,11.1,12.3,62,0.00,,,0.00,VWS V13.00,2013-07-25 05:27:00,
2013-07-25 01:32:00,73.4,60.0,26.93,North,0,0.0,12.3,63,0.00,,,0.00,VWS V13.00,2013-07-25 05:32:00,
2013-07-25 01:37:00,73.2,60.3,26.88,NNW,338,8.9,12.3,64,0.00,,,0.00,VWS V13.00,2013-07-25 05:37:00,
2013-07-25 01:42:00,73.2,59.9,26.22,NW,315,10.7,10.7,63,0.00,,,0.00,VWS V13.00,2013-07-25 05:42:00,
2013-07-25 01:47:00,73.0,59.7,26.19,NW,315,7.3,10.7,63,0.00,,,0.00,VWS V13.00,2013-07-25 05:47:00,
2013-07-25 01:52:00,72.6,59.7,26.41,North,0,2.2,10.7,64,0.00,,,0.00,VWS V13.00,2013-07-25 05:52:00,
2013-07-25 01:57:00,72.5,59.6,26.31,NNW,338,3.8,10.7,64,0.00,,,0.00,VWS V13.00,2013-07-25 05:57:00,
2013-07-25 02:02:00,72.3,59.5,26.26,NNW,338,2.4,2.4,64,0.00,,,0.00,VWS V13.00,2013-07-25 06:02:00,
2013-07-25 02:07:00,71.7,59.3,25.55,NNW,338,5.8,5.8,65,0.00,,,0.00,VWS V13.00,2013-07-25 06:07:00,
2013-07-25 02:12:00,71.7,59.3,25.51,NW,315,9.3,10.7,65,0.00,,,0.00,VWS V13.00,2013-07-25 06:12:00,
2013-07-25 02:17:00,71.7,59.8,25.44,North,0,7.3,11.4,66,0.00,,,0.00,VWS V13.00,2013-07-25 06:17:00,
2013-07-25 02:22:00,71.7,59.8,26.01,WSW,248,2.9,4.9,66,0.00,,,0.00,VWS V13.00,2013-07-25 06:22:00,
2013-07-25 02:27:00,71.7,60.2,25.84,North,0,7.6,7.6,67,0.00,,,0.00,VWS V13.00,2013-07-25 06:27:00,
2013-07-25 02:32:00,71.4,59.9,24.84,NNE,22,0.0,10.5,67,0.00,,,0.00,VWS V13.00,2013-07-25 06:32:00,
2013-07-25 02:37:00,71.4,59.9,25.49,North,0,0.0,10.5,67,0.00,,,0.00,VWS V13.00,2013-07-25 06:37:00,
2013-07-25 02:42:00,71.2,59.7,25.84,NNW,338,8.5,8.5,67,0.00,,,0.00,VWS V13.00,2013-07-25 06:42:00,
2013-07-25 02:47:00,71.2,59.7,25.65,North,0,2.9,8.5,67,0.00,,,0.00,VWS V13.00,2013-07-25 06:47:00,
2013-07-25 02:52:00,70.8,59.3,25.24,NNW,338,7.6,8.5,67,0.00,,,0.00,VWS V13.00,2013-07-25 06:52:00,
2013-07-25 02:57:00,71.2,59.7,25.32,NNW,338,3.8,10.2,67,0.00,,,0.00,VWS V13.00,2013-07-25 06:57:00,
2013-07-25 03:02:00,71.0,59.5,24.85,NNW,338,8.9,8.9,67,0.00,,,0.00,VWS V13.00,2013-07-25 07:02:00,
2013-07-25 03:08:00,71.0,59.5,25.68,NW,315,0.0,8.9,67,0.00,,,0.00,VWS V13.00,2013-07-25 07:08:00,
2013-07-25 03:13:00,71.2,59.7,25.58,North,0,6.4,9.6,67,0.00,,,0.00,VWS V13.00,2013-07-25 07:13:00,
2013-07-25 03:18:00,70.8,59.3,26.43,NNE,22,5.3,9.6,67,0.00,,,0.00,VWS V13.00,2013-07-25 07:18:00,
2013-07-25 03:23:00,70.8,59.3,25.48,NNW,338,13.6,13.6,67,0.00,,,0.00,VWS V13.00,2013-07-25 07:23:00,
2013-07-25 03:28:00,70.7,59.2,25.33,North,0,8.9,13.6,67,0.00,,,0.00,VWS V13.00,2013-07-25 07:28:00,
2013-07-25 03:33:00,70.5,59.0,25.40,North,0,5.8,13.6,67,0.00,,,0.00,VWS V13.00,2013-07-25 07:33:00,
2013-07-25 03:38:00,70.5,59.0,27.22,North,0,7.8,13.6,67,0.00,,,0.00,VWS V13.00,2013-07-25 07:38:00,
2013-07-25 03:43:00,70.3,58.4,27.45,NW,315,12.7,12.7,66,0.00,,,0.00,VWS V13.00,2013-07-25 07:43:00,
2013-07-25 03:48:00,69.9,58.5,27.47,NNW,338,8.2,12.7,67,0.00,,,0.00,VWS V13.00,2013-07-25 07:48:00,
2013-07-25 03:53:00,69.8,58.4,27.17,NNW,338,5.5,12.7,67,0.00,,,0.00,VWS V13.00,2013-07-25 07:53:00,
2013-07-25 03:58:00,69.8,58.8,27.20,NW,315,5.3,12.7,68,0.00,,,0.00,VWS V13.00,2013-07-25 07:58:00,
2013-07-25 04:03:00,69.8,58.8,27.35,North,0,4.2,4.2,68,0.00,,,0.00,VWS V13.00,2013-07-25 08:03:00,
2013-07-25 04:08:00,69.4,58.4,26.88,North,0,10.2,11.6,68,0.00,,,0.00,VWS V13.00,2013-07-25 08:08:00,
2013-07-25 04:13:00,69.2,58.6,27.03,North,0,9.1,14.9,69,0.00,,,0.00,VWS V13.00,2013-07-25 08:13:00,
2013-07-25 04:18:00,69.2,58.6,26.81,North,0,3.5,14.9,69,0.00,,,0.00,VWS V13.00,2013-07-25 08:18:00,
2013-07-25 04:23:00,69.4,58.8,27.05,NNE,22,4.6,4.6,69,0.00,,,0.00,VWS V13.00,2013-07-25 08:23:00,
2013-07-25 04:28:00,69.4,59.2,26.31,NW,315,0.0,7.6,70,0.00,,,0.00,VWS V13.00,2013-07-25 08:28:00,
2013-07-25 04:33:00,69.4,58.8,25.71,NW,315,3.3,8.2,69,0.00,,,0.00,VWS V13.00,2013-07-25 08:33:00,
2013-07-25 04:38:00,69.4,58.8,26.25,North,0,0.0,8.2,69,0.00,,,0.00,VWS V13.00,2013-07-25 08:38:00,
2013-07-25 04:43:00,69.2,58.6,26.21,NNW,338,4.6,4.6,69,0.00,,,0.00,VWS V13.00,2013-07-25 08:43:00,
2013-07-25 04:48:00,69.2,58.6,26.01,North,0,3.8,9.1,69,0.00,,,0.00,VWS V13.00,2013-07-25 08:48:00,
2013-07-25 04:53:00,69.2,59.0,25.56,NNW,338,10.2,10.2,70,0.00,,,0.00,VWS V13.00,2013-07-25 08:53:00,
2013-07-25 04:58:00,69.0,58.8,25.03,SSW,202,0.0,10.2,70,0.00,,,0.00,VWS V13.00,2013-07-25 08:58:00,
2013-07-25 05:03:00,68.9,58.7,25.96,NW,315,4.4,4.4,70,0.00,,,0.00,VWS V13.00,2013-07-25 09:03:00,
2013-07-25 05:08:00,68.7,58.9,26.90,North,0,0.0,4.4,71,0.00,,,0.00,VWS V13.00,2013-07-25 09:08:00,
2013-07-25 05:13:00,68.7,58.9,26.24,NNW,338,7.8,7.8,71,0.00,,,0.00,VWS V13.00,2013-07-25 09:13:00,
2013-07-25 05:18:00,68.9,59.1,25.42,NW,315,1.5,7.8,71,0.00,,,0.00,VWS V13.00,2013-07-25 09:18:00,
2013-07-25 05:23:00,68.9,59.1,25.30,North,0,6.7,6.7,71,0.00,,,0.00,VWS V13.00,2013-07-25 09:23:00,
2013-07-25 05:28:00,68.9,59.5,25.49,NNW,338,0.0,6.7,72,0.00,,,0.00,VWS V13.00,2013-07-25 09:28:00,
2013-07-25 05:33:00,68.9,59.5,25.33,NNW,338,11.6,11.6,72,0.00,,,0.00,VWS V13.00,2013-07-25 09:33:00,
2013-07-25 05:38:00,68.9,59.5,25.71,NE,45,2.4,11.6,72,0.00,,,0.00,VWS V13.00,2013-07-25 09:38:00,
2013-07-25 05:43:00,69.0,59.6,25.53,WNW,292,2.9,2.9,72,0.00,,,0.00,VWS V13.00,2013-07-25 09:43:00,
2013-07-25 05:48:00,69.0,60.0,25.02,West,270,2.9,2.9,73,0.00,,,0.00,VWS V13.00,2013-07-25 09:48:00,
2013-07-25 05:53:00,69.0,60.0,25.71,North,0,1.3,3.8,73,0.00,,,0.00,VWS V13.00,2013-07-25 09:53:00,
2013-07-25 05:58:00,69.4,60.8,26.15,WNW,292,0.0,5.8,74,0.00,,,0.00,VWS V13.00,2013-07-25 09:58:00,
2013-07-25 06:03:00,69.4,60.8,25.84,South,180,0.0,0.0,74,0.00,,,0.00,VWS V13.00,2013-07-25 10:03:00,
2013-07-25 06:08:00,70.1,61.0,23.44,North,0,1.1,1.1,73,0.00,,,0.00,VWS V13.00,2013-07-25 10:08:00,
2013-07-25 06:13:00,70.3,60.9,22.99,NW,315,1.5,1.5,72,0.00,,,0.00,VWS V13.00,2013-07-25 10:13:00,
2013-07-25 06:18:00,70.5,61.0,23.32,SE,135,2.0,6.0,72,0.00,,,0.00,VWS V13.00,2013-07-25 10:18:00,
2013-07-25 06:23:00,70.5,61.0,23.64,SE,135,6.9,6.9,72,0.00,,,0.00,VWS V13.00,2013-07-25 10:23:00,
2013-07-25 06:28:00,70.5,61.0,24.87,SE,135,7.3,7.3,72,0.00,,,0.00,VWS V13.00,2013-07-25 10:28:00,
2013-07-25 06:33:00,70.7,61.2,24.10,ENE,68,1.5,7.3,72,0.00,,,0.00,VWS V13.00,2013-07-25 10:33:00,
2013-07-25 06:38:00,70.7,61.2,23.47,SW,225,5.1,7.3,72,0.00,,,0.00,VWS V13.00,2013-07-25 10:38:00,
2013-07-25 06:43:00,70.5,61.0,24.83,West,270,0.0,9.8,72,0.00,,,0.00,VWS V13.00,2013-07-25 10:43:00,
2013-07-25 06:48:00,70.7,61.6,24.51,SSW,202,2.2,9.8,73,0.00,,,0.00,VWS V13.00,2013-07-25 10:48:00,
2013-07-25 06:53:00,70.7,61.6,24.46,NNE,22,2.2,15.6,73,0.00,,,0.00,VWS V13.00,2013-07-25 10:53:00,
2013-07-25 06:58:00,70.5,61.4,23.79,SSW,202,1.3,15.6,73,0.00,,,0.00,VWS V13.00,2013-07-25 10:58:00,
2013-07-25 07:03:00,70.5,61.4,23.13,NNE,22,4.2,4.2,73,0.00,,,0.00,VWS V13.00,2013-07-25 11:03:00,
2013-07-25 07:08:00,70.5,61.4,23.28,North,0,0.0,4.2,73,0.00,,,0.00,VWS V13.00,2013-07-25 11:08:00,
2013-07-25 07:13:00,70.5,61.4,24.12,East,90,2.4,4.2,73,0.00,,,0.00,VWS V13.00,2013-07-25 11:13:00,
2013-07-25 07:18:00,70.5,61.8,24.48,NNW,338,2.0,4.2,74,0.00,,,0.00,VWS V13.00,2013-07-25 11:18:00,
2013-07-25 07:23:00,70.5,61.8,23.31,West,270,0.0,9.1,74,0.00,,,0.00,VWS V13.00,2013-07-25 11:23:00,
2013-07-25 07:29:00,70.5,61.8,23.06,NW,315,4.6,9.1,74,0.00,,,0.00,VWS V13.00,2013-07-25 11:29:00,
2013-07-25 07:34:00,70.5,62.2,23.59,WNW,292,4.2,9.1,75,0.00,,,0.00,VWS V13.00,2013-07-25 11:34:00,
2013-07-25 07:39:00,70.5,62.2,23.43,WSW,248,0.0,9.1,75,0.00,,,0.00,VWS V13.00,2013-07-25 11:39:00,
2013-07-25 07:44:00,70.5,62.2,22.92,East,90,3.5,4.0,75,0.00,,,0.00,VWS V13.00,2013-07-25 11:44:00,
2013-07-25 07:49:00,70.5,62.2,22.86,NNW,338,6.4,10.5,75,0.00,,,0.00,VWS V13.00,2013-07-25 11:49:00,
2013-07-25 07:54:00,70.3,62.4,23.11,NE,45,3.1,10.5,76,0.00,,,0.00,VWS V13.00,2013-07-25 11:54:00,
2013-07-25 07:59:00,70.1,62.6,23.10,NNW,338,0.0,10.5,77,0.00,,,0.00,VWS V13.00,2013-07-25 11:59:00,
2013-07-25 08:04:00,70.1,62.6,23.18,West,270,4.4,4.4,77,0.00,,,0.00,VWS V13.00,2013-07-25 12:04:00,
2013-07-25 08:09:00,69.9,62.4,23.80,SSW,202,1.3,10.5,77,0.00,,,0.00,VWS V13.00,2013-07-25 12:09:00,
2013-07-25 08:14:00,69.9,62.7,23.93,WNW,292,0.0,10.5,78,0.00,,,0.00,VWS V13.00,2013-07-25 12:14:00,
2013-07-25 08:19:00,69.6,62.8,23.65,NW,315,8.2,10.5,79,0.00,,,0.00,VWS V13.00,2013-07-25 12:19:00,
2013-07-25 08:24:00,69.6,62.8,23.03,East,90,0.0,6.9,79,0.00,,,0.00,VWS V13.00,2013-07-25 12:24:00,
2013-07-25 08:29:00,69.6,63.2,24.08,WSW,248,6.4,6.9,80,0.00,,,0.00,VWS V13.00,2013-07-25 12:29:00,
2013-07-25 08:34:00,69.4,63.0,24.62,NW,315,3.5,6.9,80,0.00,,,0.00,VWS V13.00,2013-07-25 12:34:00,
2013-07-25 08:39:00,69.4,63.3,24.25,SW,225,2.4,6.9,81,0.00,,,0.00,VWS V13.00,2013-07-25 12:39:00,
2013-07-25 08:44:00,69.4,63.3,24.29,SE,135,0.0,5.1,81,0.00,,,0.00,VWS V13.00,2013-07-25 12:44:00,
2013-07-25 08:49:00,69.4,63.3,24.45,NW,315,2.0,5.1,81,0.00,,,0.00,VWS V13.00,2013-07-25 12:49:00,
2013-07-25 08:54:00,69.2,63.5,25.14,NNE,22,6.9,6.9,82,0.00,,,0.00,VWS V13.00,2013-07-25 12:54:00,
2013-07-25 08:59:00,69.0,63.3,24.45,WNW,292,3.8,6.9,82,0.00,,,0.00,VWS V13.00,2013-07-25 12:59:00,
2013-07-25 09:04:00,69.0,63.3,24.63,SSW,202,6.7,6.7,82,0.00,,,0.00,VWS V13.00,2013-07-25 13:04:00,
2013-07-25 09:09:00,69.0,63.3,23.47,North,0,8.5,8.5,82,0.00,,,0.00,VWS V13.00,2013-07-25 13:09:00,
2013-07-25 09:14:00,69.0,63.3,24.46,NW,315,2.6,8.5,82,0.00,,,0.00,VWS V13.00,2013-07-25 13:14:00,
2013-07-25 09:19:00,69.0,63.3,23.61,ENE,68,0.0,8.5,82,0.00,,,0.00,VWS V13.00,2013-07-25 13:19:00,
2013-07-25 09:24:00,69.0,63.3,24.74,ESE,112,2.2,3.5,82,0.00,,,0.00,VWS V13.00,2013-07-25 13:24:00,
2013-07-25 09:29:00,69.0,63.3,24.93,ESE,112,1.5,3.5,82,0.00,,,0.00,VWS V13.00,2013-07-25 13:29:00,
2013-07-25 09:34:00,69.0,63.3,24.87,South,180,5.8,6.2,82,0.00,,,0.00,VWS V13.00,2013-07-25 13:34:00,
2013-07-25 09:39:00,69.0,63.3,24.44,WSW,248,0.0,6.2,82,0.00,,,0.00,VWS V13.00,2013-07-25 13:39:00,
2013-07-25 09:44:00,69.0,63.3,24.47,WNW,292,3.8,5.1,82,0.00,,,0.00,VWS V13.00,2013-07-25 13:44:00,
2013-07-25 09:49:00,68.9,63.2,24.99,North,0,7.6,7.6,82,0.00,,,0.00,VWS V13.00,2013-07-25 13:49:00,
2013-07-25 09:54:00,68.9,62.8,25.98,NW,315,6.7,7.6,81,0.00,,,0.00,VWS V13.00,2013-07-25 13:54:00,
2013-07-25 09:59:00,69.0,63.3,27.02,ESE,112,2.4,7.6,82,0.00,,,0.00,VWS V13.00,2013-07-25 13:59:00,
2013-07-25 10:04:00,69.0,63.3,26.59,NW,315,0.0,12.7,82,0.00,,,0.00,VWS V13.00,2013-07-25 14:04:00,
2013-07-25 10:09:00,69.0,63.3,26.85,North,0,6.4,12.7,82,0.00,,,0.00,VWS V13.00,2013-07-25 14:09:00,
2013-07-25 10:14:00,69.0,62.9,27.30,SSW,202,2.4,12.7,81,0.00,,,0.00,VWS V13.00,2013-07-25 14:14:00,
2013-07-25 10:19:00,69.0,62.9,26.77,SW,225,4.9,12.7,81,0.00,,,0.00,VWS V13.00,2013-07-25 14:19:00,
2013-07-25 10:24:00,69.0,62.9,25.76,WNW,292,1.3,17.6,81,0.00,,,0.00,VWS V13.00,2013-07-25 14:24:00,
2013-07-25 10:29:00,68.9,62.8,26.65,West,270,8.7,17.6,81,0.00,,,0.00,VWS V13.00,2013-07-25 14:29:00,
2013-07-25 10:34:00,68.9,62.8,26.46,ENE,68,3.5,17.6,81,0.00,,,0.00,VWS V13.00,2013-07-25 14:34:00,
2013-07-25 10:39:00,69.0,62.9,26.88,NW,315,3.1,17.6,81,0.00,,,0.00,VWS V13.00,2013-07-25 14:39:00,
2013-07-25 10:44:00,69.0,62.6,26.93,WNW,292,0.0,4.2,80,0.00,,,0.00,VWS V13.00,2013-07-25 14:44:00,
2013-07-25 10:49:00,69.0,62.9,27.26,North,0,6.0,8.2,81,0.00,,,0.00,VWS V13.00,2013-07-25 14:49:00,
2013-07-25 10:54:00,69.0,62.9,26.79,NW,315,4.4,8.2,81,0.00,,,0.00,VWS V13.00,2013-07-25 14:54:00,
2013-07-25 10:59:00,68.9,62.8,26.59,ESE,112,3.1,8.2,81,0.00,,,0.00,VWS V13.00,2013-07-25 14:59:00,
2013-07-25 11:04:00,68.7,62.6,26.95,NW,315,11.8,11.8,81,0.00,,,0.00,VWS V13.00,2013-07-25 15:04:00,
2013-07-25 11:09:00,68.7,63.0,26.80,North,0,2.0,11.8,82,0.02,,,0.02,VWS V13.00,2013-07-25 15:09:00,
2013-07-25 11:15:00,68.7,63.0,27.59,West,270,2.4,11.8,82,0.02,,,0.02,VWS V13.00,2013-07-25 15:15:00,
2013-07-25 11:20:00,68.7,63.0,27.14,NNW,338,4.9,11.8,82,0.02,,,0.02,VWS V13.00,2013-07-25 15:20:00,
2013-07-25 11:25:00,68.7,63.0,26.36,SSE,158,3.8,6.4,82,0.02,,,0.02,VWS V13.00,2013-07-25 15:25:00,
2013-07-25 11:30:00,68.5,62.8,27.14,West,270,2.4,19.9,82,0.02,,,0.02,VWS V13.00,2013-07-25 15:30:00,
2013-07-25 11:35:00,68.5,63.1,27.50,WSW,248,10.0,19.9,83,0.02,,,0.02,VWS V13.00,2013-07-25 15:35:00,
2013-07-25 11:40:00,68.5,63.1,27.98,NNE,22,6.9,19.9,83,0.02,,,0.02,VWS V13.00,2013-07-25 15:40:00,
2013-07-25 11:45:00,68.5,63.1,27.84,ESE,112,4.2,6.9,83,0.02,,,0.02,VWS V13.00,2013-07-25 15:45:00,
2013-07-25 11:50:00,68.5,63.1,27.65,SW,225,6.0,6.9,83,0.02,,,0.02,VWS V13.00,2013-07-25 15:50:00,
2013-07-25 11:55:00,68.3,62.9,26.92,West,270,4.9,6.9,83,0.02,,,0.02,VWS V13.00,2013-07-25 15:55:00,
2013-07-25 12:00:00,68.3,62.9,27.17,NE,45,7.6,7.6,83,0.02,,,0.02,VWS V13.00,2013-07-25 16:00:00,
2013-07-25 12:05:00,68.5,63.1,27.99,WNW,292,2.2,7.6,83,0.02,,,0.02,VWS V13.00,2013-07-25 16:05:00,
2013-07-25 12:10:00,68.5,63.1,27.47,WSW,248,8.7,14.0,83,0.00,,,0.02,VWS V13.00,2013-07-25 16:10:00,
2013-07-25 12:15:00,68.5,63.1,27.78,NNW,338,11.1,14.0,83,0.00,,,0.02,VWS V13.00,2013-07-25 16:15:00,
2013-07-25 12:20:00,68.5,63.1,28.11,SE,135,3.8,14.0,83,0.00,,,0.02,VWS V13.00,2013-07-25 16:20:00,
2013-07-25 12:21:00,68.7,63.3,28.61,NW,315,8.5,8.5,83,0.00,,,0.02,VWS V13.00,2013-07-25 16:21:00,
2013-07-25 12:26:00,68.7,63.0,29.65,North,0,5.1,8.5,82,0.00,,,0.02,VWS V13.00,2013-07-25 16:26:00,
2013-07-25 12:31:00,68.7,63.0,28.65,NW,315,5.3,8.5,82,0.00,,,0.02,VWS V13.00,2013-07-25 16:31:00,
2013-07-25 12:36:00,68.5,62.8,28.58,ESE,112,11.6,14.7,82,0.00,,,0.02,VWS V13.00,2013-07-25 16:36:00,
2013-07-25 12:41:00,68.5,62.8,28.72,NNE,22,3.8,3.8,82,0.00,,,0.02,VWS V13.00,2013-07-25 16:41:00,
2013-07-25 12:46:00,68.7,63.0,28.81,NNW,338,10.2,10.2,82,0.00,,,0.02,VWS V13.00,2013-07-25 16:46:00,
2013-07-25 12:51:00,68.7,63.0,29.02,West,270,3.5,10.2,82,0.00,,,0.02,VWS V13.00,2013-07-25 16:51:00,
2013-07-25 12:56:00,68.7,62.6,28.88,South,180,7.6,10.2,81,0.00,,,0.02,VWS V13.00,2013-07-25 16:56:00,
2013-07-25 13:01:00,68.7,62.6,28.82,NW,315,10.0,10.5,81,0.00,,,0.02,VWS V13.00,2013-07-25 17:01:00,
2013-07-25 13:06:00,68.7,62.6,29.45,NNE,22,6.4,10.5,81,0.00,,,0.02,VWS V13.00,2013-07-25 17:06:00,
2013-07-25 13:11:00,68.7,62.6,29.24,WNW,292,7.3,16.3,81,0.00,,,0.02,VWS V13.00,2013-07-25 17:11:00,
2013-07-25 13:16:00,68.7,62.6,27.55,North,0,0.0,16.3,81,0.00,,,0.02,VWS V13.00,2013-07-25 17:16:00,
2013-07-25 13:22:00,68.7,62.6,27.73,North,0,7.6,7.6,81,0.00,,,0.02,VWS V13.00,2013-07-25 17:22:00,
2013-07-25 13:27:00,68.7,62.6,27.66,South,180,5.1,7.6,81,0.00,,,0.02,VWS V13.00,2013-07-25 17:27:00,
2013-07-25 13:32:00,68.5,62.5,27.92,ENE,68,0.0,10.7,81,0.00,,,0.02,VWS V13.00,2013-07-25 17:32:00,
2013-07-25 13:37:00,68.5,62.5,28.25,NNW,338,3.5,10.7,81,0.00,,,0.02,VWS V13.00,2013-07-25 17:37:00,
2013-07-25 13:42:00,68.5,62.5,28.64,WSW,248,5.1,5.1,81,0.00,,,0.02,VWS V13.00,2013-07-25 17:42:00,
2013-07-25 13:47:00,68.5,62.1,28.69,WSW,248,13.1,13.1,80,0.00,,,0.02,VWS V13.00,2013-07-25 17:47:00,
2013-07-25 13:52:00,68.5,62.1,29.62,ESE,112,6.0,13.1,80,0.00,,,0.02,VWS V13.00,2013-07-25 17:52:00,
2013-07-25 13:57:00,68.7,62.3,29.13,ENE,68,9.1,13.1,80,0.00,,,0.02,VWS V13.00,2013-07-25 17:57:00,
2013-07-25 14:02:00,69.0,62.6,28.25,East,90,5.5,7.3,80,0.00,,,0.02,VWS V13.00,2013-07-25 18:02:00,
2013-07-25 14:07:00,69.4,62.6,28.40,SSE,158,4.6,9.6,79,0.00,,,0.02,VWS V13.00,2013-07-25 18:07:00,
2013-07-25 14:12:00,69.4,62.6,28.49,WSW,248,5.1,9.6,79,0.00,,,0.02,VWS V13.00,2013-07-25 18:12:00,
2013-07-25 14:17:00,69.6,62.4,28.72,SW,225,6.0,10.2,78,0.00,,,0.02,VWS V13.00,2013-07-25 18:17:00,
2013-07-25 14:22:00,69.6,62.8,27.90,WSW,248,4.0,4.0,79,0.00,,,0.02,VWS V13.00,2013-07-25 18:22:00,
2013-07-25 14:27:00,69.9,62.7,28.06,East,90,7.3,9.1,78,0.00,,,0.02,VWS V13.00,2013-07-25 18:27:00,
2013-07-25 14:32:00,70.1,62.9,28.80,North,0,7.8,9.1,78,0.00,,,0.02,VWS V13.00,2013-07-25 18:32:00,
2013-07-25 14:37:00,70.3,63.1,29.22,West,270,1.7,9.1,78,0.00,,,0.02,VWS V13.00,2013-07-25 18:37:00,
2013-07-25 14:42:00,70.3,62.8,29.49,ESE,112,5.5,9.3,77,0.00,,,0.02,VWS V13.00,2013-07-25 18:42:00,
2013-07-25 14:47:00,70.3,63.1,29.13,NNE,22,6.4,9.3,78,0.00,,,0.02,VWS V13.00,2013-07-25 18:47:00,
2013-07-25 14:52:00,70.3,63.1,29.13,East,90,7.1,9.3,78,0.00,,,0.02,VWS V13.00,2013-07-25 18:52:00,
2013-07-25 14:57:00,70.1,62.9,29.13,North,0,0.0,9.3,78,0.00,,,0.02,VWS V13.00,2013-07-25 18:57:00,
2013-07-25 15:02:00,70.3,62.8,32.57,North,0,6.7,7.3,77,0.00,,,0.02,VWS V13.00,2013-07-25 19:02:00,
2013-07-25 15:07:00,70.3,62.8,31.74,NNW,338,6.7,8.5,77,0.00,,,0.02,VWS V13.00,2013-07-25 19:07:00,
2013-07-25 15:12:00,70.1,62.6,32.26,NNE,22,7.8,18.3,77,0.00,,,0.02,VWS V13.00,2013-07-25 19:12:00,
2013-07-25 15:17:00,69.9,62.4,32.14,West,270,0.0,18.3,77,0.00,,,0.02,VWS V13.00,2013-07-25 19:17:00,
2013-07-25 15:22:00,69.9,62.4,32.14,SSE,158,11.4,11.4,77,0.00,,,0.02,VWS V13.00,2013-07-25 19:22:00,
2013-07-25 15:27:00,69.9,62.4,32.32,WNW,292,2.4,11.4,77,0.00,,,0.02,VWS V13.00,2013-07-25 19:27:00,
2013-07-25 15:32:00,69.8,62.3,32.12,WSW,248,5.8,11.4,77,0.00,,,0.02,VWS V13.00,2013-07-25 19:32:00,
2013-07-25 15:37:00,69.6,62.1,32.12,WSW,248,8.7,11.4,77,0.00,,,0.02,VWS V13.00,2013-07-25 19:37:00,
2013-07-25 15:42:00,69.4,61.9,32.12,North,0,12.9,12.9,77,0.00,,,0.02,VWS V13.00,2013-07-25 19:42:00,
2013-07-25 15:47:00,69.4,61.9,31.34,NW,315,0.8,12.9,77,0.00,,,0.02,VWS V13.00,2013-07-25 19:47:00,
2013-07-25 15:52:00,69.0,61.5,31.82,WNW,292,8.0,12.9,77,0.00,,,0.02,VWS V13.00,2013-07-25 19:52:00,
2013-07-25 15:57:00,69.0,61.9,31.42,North,0,10.2,12.9,78,0.00,,,0.02,VWS V13.00,2013-07-25 19:57:00,
2013-07-25 16:02:00,69.0,61.9,31.42,NE,45,2.6,3.8,78,0.00,,,0.02,VWS V13.00,2013-07-25 20:02:00,
2013-07-25 16:07:00,69.0,61.5,31.87,NNE,22,3.1,17.0,77,0.00,,,0.02,VWS V13.00,2013-07-25 20:07:00,
2013-07-25 16:12:00,68.9,61.8,31.74,SE,135,0.0,17.0,78,0.00,,,0.02,VWS V13.00,2013-07-25 20:12:00,
2013-07-25 16:17:00,68.9,61.8,32.49,NNE,22,5.3,17.0,78,0.00,,,0.02,VWS V13.00,2013-07-25 20:17:00,
2013-07-25 16:22:00,69.0,61.9,32.49,North,0,20.1,20.1,78,0.00,,,0.02,VWS V13.00,2013-07-25 20:22:00,
2013-07-25 16:27:00,68.9,61.4,32.49,North,0,7.8,20.1,77,0.00,,,0.02,VWS V13.00,2013-07-25 20:27:00,
2013-07-25 16:32:00,69.0,61.5,32.47,WNW,292,0.0,20.1,77,0.00,,,0.02,VWS V13.00,2013-07-25 20:32:00,
2013-07-25 16:38:00,69.0,61.5,32.47,West,270,4.9,20.1,77,0.00,,,0.02,VWS V13.00,2013-07-25 20:38:00,
2013-07-25 16:43:00,69.0,61.5,31.92,NW,315,7.3,8.0,77,0.00,,,0.02,VWS V13.00,2013-07-25 20:43:00,
2013-07-25 16:48:00,69.0,61.5,31.92,South,180,4.6,8.0,77,0.00,,,0.02,VWS V13.00,2013-07-25 20:48:00,
2013-07-25 16:53:00,68.9,61.8,31.92,NNE,22,6.4,8.0,78,0.00,,,0.02,VWS V13.00,2013-07-25 20:53:00,
2013-07-25 16:58:00,68.9,61.8,31.92,WSW,248,8.5,8.5,78,0.00,,,0.02,VWS V13.00,2013-07-25 20:58:00,
2013-07-25 17:03:00,68.7,61.6,31.92,ESE,112,10.2,10.2,78,0.00,,,0.02,VWS V13.00,2013-07-25 21:03:00,
2013-07-25 17:08:00,68.9,61.8,32.28,North,0,19.6,19.6,78,0.00,,,0.02,VWS V13.00,2013-07-25 21:08:00,
2013-07-25 17:13:00,68.9,62.1,31.94,North,0,2.0,19.6,79,0.00,,,0.02,VWS V13.00,2013-07-25 21:13:00,
2013-07-25 17:18:00,68.9,61.8,31.76,WSW,248,2.6,19.6,78,0.00,,,0.02,VWS V13.00,2013-07-25 21:18:00,
2013-07-25 17:23:00,68.9,61.8,32.55,NW,315,9.6,9.6,78,0.00,,,0.02,VWS V13.00,2013-07-25 21:23:00,
2013-07-25 17:28:00,68.7,61.6,29.70,NW,315,5.8,9.6,78,0.00,,,0.02,VWS V13.00,2013-07-25 21:28:00,
2013-07-25 17:33:00,68.7,61.9,30.16,NW,315,6.2,9.6,79,0.00,,,0.02,VWS V13.00,2013-07-25 21:33:00,
2013-07-25 17:38:00,68.9,62.1,29.54,NW,315,3.8,9.6,79,0.00,,,0.02,VWS V13.00,2013-07-25 21:38:00,
2013-07-25 17:43:00,68.7,61.9,29.52,SW,225,1.3,4.6,79,0.00,,,0.02,VWS V13.00,2013-07-25 21:43:00,
2013-07-25 17:48:00,68.7,61.9,29.73,NW,315,3.5,5.1,79,0.00,,,0.02,VWS V13.00,2013-07-25 21:48:00,
2013-07-25 17:53:00,68.7,17.6,28.81,West,270,0.0,5.5,14,0.00,,,0.02,VWS V13.00,2013-07-25 21:53:00,
2013-07-25 17:58:00,68.9,62.1,27.34,NNW,338,6.7,6.7,79,0.00,,,0.02,VWS V13.00,2013-07-25 21:58:00,
2013-07-25 18:03:00,68.7,61.9,27.83,NNW,338,5.1,9.8,79,0.00,,,0.02,VWS V13.00,2013-07-25 22:03:00,
2013-07-25 18:08:00,68.7,61.9,27.96,NNE,22,4.4,9.8,79,0.00,,,0.02,VWS V13.00,2013-07-25 22:08:00,
2013-07-25 18:13:00,68.7,61.9,27.51,NNW,338,8.9,10.2,79,0.00,,,0.02,VWS V13.00,2013-07-25 22:13:00,
2013-07-25 18:18:00,68.7,61.9,27.01,NE,45,6.7,10.2,79,0.00,,,0.02,VWS V13.00,2013-07-25 22:18:00,
2013-07-25 18:23:00,68.7,61.9,26.39,NNE,22,11.4,11.4,79,0.00,,,0.02,VWS V13.00,2013-07-25 22:23:00,
2013-07-25 18:28:00,68.7,61.9,27.29,NW,315,9.6,11.4,79,0.00,,,0.02,VWS V13.00,2013-07-25 22:28:00,
2013-07-25 18:33:00,68.7,61.9,26.88,NE,45,7.3,12.7,79,0.00,,,0.02,VWS V13.00,2013-07-25 22:33:00,
2013-07-25 18:38:00,68.7,61.9,26.19,SSW,202,0.0,12.7,79,0.00,,,0.02,VWS V13.00,2013-07-25 22:38:00,
2013-07-25 18:44:00,68.9,62.1,23.68,NNE,22,4.6,5.1,79,0.00,,,0.02,VWS V13.00,2013-07-25 22:44:00,
2013-07-25 18:49:00,68.7,61.9,24.42,WSW,248,7.1,8.0,79,0.00,,,0.02,VWS V13.00,2013-07-25 22:49:00,
2013-07-25 18:54:00,68.7,61.9,24.86,North,0,8.5,10.2,79,0.00,,,0.02,VWS V13.00,2013-07-25 22:54:00,
2013-07-25 18:59:00,68.7,61.9,26.00,SW,225,0.0,10.2,79,0.00,,,0.02,VWS V13.00,2013-07-25 22:59:00,
2013-07-25 19:04:00,68.5,62.1,25.69,ENE,68,6.2,6.2,80,0.00,,,0.02,VWS V13.00,2013-07-25 23:04:00,
2013-07-25 19:09:00,68.5,62.1,24.41,NNW,338,10.5,10.5,80,0.00,,,0.02,VWS V13.00,2013-07-25 23:09:00,
2013-07-25 19:14:00,68.5,62.1,25.01,SSW,202,3.3,10.5,80,0.00,,,0.02,VWS V13.00,2013-07-25 23:14:00,
2013-07-25 19:19:00,68.5,62.1,25.06,NW,315,4.2,10.7,80,0.00,,,0.02,VWS V13.00,2013-07-25 23:19:00,
2013-07-25 19:24:00,68.5,62.1,23.50,NNW,338,10.5,10.5,80,0.00,,,0.02,VWS V13.00,2013-07-25 23:24:00,
2013-07-25 19:29:00,68.3,61.9,24.10,NNW,338,10.5,10.5,80,0.00,,,0.02,VWS V13.00,2013-07-25 23:29:00,
2013-07-25 19:34:00,68.1,61.7,23.87,NE,45,7.8,10.5,80,0.00,,,0.02,VWS V13.00,2013-07-25 23:34:00,
2013-07-25 19:39:00,68.1,61.7,24.37,NE,45,10.2,10.5,80,0.00,,,0.02,VWS V13.00,2013-07-25 23:39:00,
2013-07-25 19:44:00,68.1,61.7,24.17,WNW,292,4.2,4.2,80,0.00,,,0.02,VWS V13.00,2013-07-25 23:44:00,
2013-07-25 19:49:00,68.0,61.6,23.73,NNW,338,7.3,13.8,80,0.00,,,0.02,VWS V13.00,2013-07-25 23:49:00,
2013-07-25 19:54:00,68.1,61.7,23.72,ESE,112,2.0,13.8,80,0.00,,,0.02,VWS V13.00,2013-07-25 23:54:00,
2013-07-25 19:59:00,67.8,61.4,23.69,NNW,338,10.0,13.8,80,0.00,,,0.02,VWS V13.00,2013-07-25 23:59:00,
2013-07-25 20:04:00,67.8,61.4,24.17,NNW,338,9.8,9.8,80,0.00,,,0.02,VWS V13.00,2013-07-26 00:04:00,
2013-07-25 20:09:00,67.8,61.4,23.77,NW,315,9.3,9.8,80,0.00,,,0.02,VWS V13.00,2013-07-26 00:09:00,
2013-07-25 20:14:00,67.8,61.4,23.75,NW,315,7.1,10.0,80,0.00,,,0.02,VWS V13.00,2013-07-26 00:14:00,
2013-07-25 20:19:00,67.6,61.6,23.22,North,0,8.2,10.0,81,0.00,,,0.02,VWS V13.00,2013-07-26 00:19:00,
2013-07-25 20:24:00,67.6,61.6,23.90,West,270,4.2,5.3,81,0.00,,,0.02,VWS V13.00,2013-07-26 00:24:00,
2013-07-25 20:29:00,67.6,61.6,23.91,North,0,0.0,5.3,81,0.00,,,0.02,VWS V13.00,2013-07-26 00:29:00,
2013-07-25 20:34:00,67.6,61.6,24.12,NNW,338,8.2,8.2,81,0.00,,,0.02,VWS V13.00,2013-07-26 00:34:00,
2013-07-25 20:39:00,67.6,61.6,23.57,NNE,22,7.8,8.2,81,0.00,,,0.02,VWS V13.00,2013-07-26 00:39:00,
2013-07-25 20:44:00,67.4,61.4,24.72,NNE,22,0.8,9.3,81,0.00,,,0.02,VWS V13.00,2013-07-26 00:44:00,
2013-07-25 20:49:00,67.2,61.2,24.90,NNE,22,5.1,9.3,81,0.00,,,0.02,VWS V13.00,2013-07-26 00:49:00,
2013-07-25 20:54:00,67.4,61.4,24.32,NE,45,2.0,9.3,81,0.00,,,0.02,VWS V13.00,2013-07-26 00:54:00,
2013-07-25 20:59:00,67.2,61.2,24.42,ESE,112,1.3,9.3,81,0.00,,,0.02,VWS V13.00,2013-07-26 00:59:00,
2013-07-25 21:04:00,67.2,61.2,23.86,North,0,10.5,10.5,81,0.00,,,0.02,VWS V13.00,2013-07-26 01:04:00,
2013-07-25 21:09:00,67.2,61.2,23.73,NW,315,0.0,15.2,81,0.00,,,0.02,VWS V13.00,2013-07-26 01:09:00,
2013-07-25 21:14:00,67.2,61.2,23.62,North,0,4.6,15.2,81,0.00,,,0.02,VWS V13.00,2013-07-26 01:14:00,
2013-07-25 21:19:00,67.2,61.2,23.40,WNW,292,3.8,15.2,81,0.00,,,0.02,VWS V13.00,2013-07-26 01:19:00,
2013-07-25 21:24:00,67.2,61.2,23.38,NNW,338,5.5,9.6,81,0.00,,,0.02,VWS V13.00,2013-07-26 01:24:00,
2013-07-25 21:29:00,67.2,61.2,23.58,WNW,292,7.8,11.8,81,0.00,,,0.02,VWS V13.00,2013-07-26 01:29:00,
2013-07-25 21:34:00,67.2,61.2,23.38,NNW,338,6.7,11.8,81,0.00,,,0.02,VWS V13.00,2013-07-26 01:34:00,
2013-07-25 21:39:00,67.2,61.2,23.61,WNW,292,2.0,11.8,81,0.00,,,0.02,VWS V13.00,2013-07-26 01:39:00,
2013-07-25 21:44:00,67.2,61.2,24.25,NE,45,3.1,5.1,81,0.00,,,0.02,VWS V13.00,2013-07-26 01:44:00,
2013-07-25 21:49:00,67.2,61.2,25.00,North,0,2.2,9.3,81,0.00,,,0.02,VWS V13.00,2013-07-26 01:49:00,
2013-07-25 21:54:00,67.2,61.2,25.17,NNE,22,8.7,9.3,81,0.00,,,0.02,VWS V13.00,2013-07-26 01:54:00,
2013-07-25 21:59:00,67.2,61.2,25.75,NNW,338,10.5,10.5,81,0.00,,,0.02,VWS V13.00,2013-07-26 01:59:00,
2013-07-25 22:04:00,67.2,61.2,25.20,NNE,22,7.1,9.8,81,0.00,,,0.02,VWS V13.00,2013-07-26 02:04:00,
2013-07-25 22:09:00,67.2,61.2,24.49,NW,315,2.2,9.8,81,0.00,,,0.02,VWS V13.00,2013-07-26 02:09:00,
2013-07-25 22:14:00,67.2,61.2,25.54,North,0,9.8,9.8,81,0.00,,,0.02,VWS V13.00,2013-07-26 02:14:00,
2013-07-25 22:19:00,67.1,61.1,25.41,NNW,338,4.2,10.5,81,0.00,,,0.02,VWS V13.00,2013-07-26 02:19:00,
2013-07-25 22:24:00,67.1,61.1,25.03,North,0,8.2,8.2,81,0.00,,,0.02,VWS V13.00,2013-07-26 02:24:00,
2013-07-25 22:29:00,67.1,61.1,26.02,NNW,338,2.2,8.2,81,0.00,,,0.02,VWS V13.00,2013-07-26 02:29:00,
2013-07-25 22:34:00,67.1,61.1,26.12,North,0,6.0,8.9,81,0.00,,,0.02,VWS V13.00,2013-07-26 02:34:00,
2013-07-25 22:39:00,67.1,61.1,25.87,NNW,338,9.3,9.3,81,0.00,,,0.02,VWS V13.00,2013-07-26 02:39:00,
2013-07-25 22:44:00,67.2,61.2,26.56,NNW,338,0.0,0.0,81,0.00,,,0.02,VWS V13.00,2013-07-26 02:44:00,
2013-07-25 22:49:00,67.2,61.2,26.99,North,0,6.0,6.0,81,0.00,,,0.02,VWS V13.00,2013-07-26 02:49:00,
2013-07-25 22:54:00,67.2,61.2,26.18,North,0,5.8,10.2,81,0.00,,,0.02,VWS V13.00,2013-07-26 02:54:00,
2013-07-25 22:59:00,67.2,61.2,25.88,North,0,1.3,10.2,81,0.00,,,0.02,VWS V13.00,2013-07-26 02:59:00,
2013-07-25 23:04:00,67.2,61.2,25.19,NNW,338,7.3,7.3,81,0.00,,,0.02,VWS V13.00,2013-07-26 03:04:00,
2013-07-25 23:09:00,67.1,61.1,24.63,North,0,5.8,7.3,81,0.00,,,0.02,VWS V13.00,2013-07-26 03:09:00,
2013-07-25 23:14:00,67.1,61.1,25.35,NNW,338,10.7,10.7,81,0.00,,,0.02,VWS V13.00,2013-07-26 03:14:00,
2013-07-25 23:19:00,67.1,61.1,25.49,North,0,8.5,13.6,81,0.00,,,0.02,VWS V13.00,2013-07-26 03:19:00,
2013-07-25 23:24:00,67.1,61.1,25.69,NW,315,4.4,4.4,81,0.00,,,0.02,VWS V13.00,2013-07-26 03:24:00,
2013-07-25 23:29:00,67.2,61.2,26.11,NNW,338,0.0,4.4,81,0.00,,,0.02,VWS V13.00,2013-07-26 03:29:00,
2013-07-25 23:34:00,67.2,61.2,25.13,North,0,2.4,7.3,81,0.00,,,0.02,VWS V13.00,2013-07-26 03:34:00,
2013-07-25 23:39:00,67.2,61.2,23.77,NNW,338,9.3,9.3,81,0.00,,,0.02,VWS V13.00,2013-07-26 03:39:00,
2013-07-25 23:44:00,67.2,61.2,24.22,North,0,9.3,9.3,81,0.00,,,0.02,VWS V13.00,2013-07-26 03:44:00,
2013-07-25 23:49:00,67.2,61.2,24.13,North,0,8.0,9.3,81,0.00,,,0.02,VWS V13.00,2013-07-26 03:49:00,
2013-07-25 23:54:00,67.2,61.2,23.77,North,0,14.0,14.0,81,0.00,,,0.02,VWS V13.00,2013-07-26 03:54:00,
2013-07-25 23:59:00,67.2,61.2,23.86,North,0,4.9,14.0,81,0.00,,,0.02,VWS V13.00,2013-07-26 03:59:00,